Aérodrome :
LOGIN :

S'inscrire | Disclaimer

   EN    FR    IT 

 










Légende :    VFR   VFR Marginal   IFR   IFR Intensif   IFR Très Intensif
Visi : 
Plafond : 
>= 8 km
>= 3000ft
5 à 8 km
1000 à 3000 ft
1500m à 5 km
500 à 1000 ft
800 à 1500m
200 à 500 ft
< 800m
< 200 ft
Symboles :   Orages  Brouillard  Fortes neiges  Fortes précipitations  Vent > 20 kt
SIGMETs :   Divers  Orages  Givrage  Turbulence  Onde Orograph.  Cendres Volcan.







- Altitude de l'aérodrome : 909 ft
- Code IATA : KSF


EDVK - Kassel Calden

DERNIER METAR :
  • 232020Z 26003KT CAVOK 11/07 Q1016

METARs EXPIRÉS :
  • 231950Z 27003KT 230V310 CAVOK 12/07 Q1016
  • 231920Z 31006KT CAVOK 11/07 Q1016
  • 231850Z 30006KT CAVOK 13/07 Q1016
  • 231820Z 32006KT CAVOK 14/08 Q1015
  • 231750Z 31008KT CAVOK 15/08 Q1015

TAF TAF EDVK
Valide du 23 à 21h jusqu'au 24 à 03h UTC


232000Z 2321/2403 28005KT CAVOK
BECMG 2321/2324 22003KT
Pas de NOTAMs connus pour ce terrain.



MET'MAP, la Météo Aéronautique d'un coup d'oeil ! - Copyright ORBIFLY Décembre 2007 - Disclaimer

ORBIFLY MET'MAP TEAM :

Programmation & Développement : Alexandra Zaïnal
Conception & Développement : Baudouin d'Aumeries
Co-Programmation & Développement : Marc-Olivier Méhu
Soutien technique & logistique : Manuel Goepfert

Contact : metmap@orbifly.com




SOURCES & CREDITS :

   NOAA